Warroad, MN

10:51 AM CDT on May 24, 2017 (GMT -0500)
Warroad International-Carlson

Weather History for KRRT - June, 2012

Change the Weather History Date:

Wednesday, June 13, 2012

  Actual Average Record
Temperature  
Mean Temperature 68 °F -  
Max Temperature 78 °F 73 °F 86 °F (1993)
Min Temperature 57 °F 52 °F 33 °F (1969)
Cooling Degree Days 2    
Growing Degree Days 18 (Base 50)    
Moisture  
Dew Point 54 °F    
Average Humidity 64    
Maximum Humidity 77    
Minimum Humidity 47    
Precipitation  
Precipitation 0.00 in - - ()
Sea Level Pressure  
Sea Level Pressure 29.88 in    
Wind  
Wind Speed 9 mph (South)    
Max Wind Speed 17 mph    
Max Gust Speed 25 mph    
Visibility 10 miles    
Events Rain    
Averages and records for this station are not official NWS values.
T = Trace of Precipitation, MM = Missing Value Source: NWS Daily Summary

Daily Weather History Graph

Daily Weather History Graph

Search for Another Location

Airport or City:

Trip Planner

Search our weather history database for the weather conditions in past years. The results will help you decide how hot, cold, wet, or windy it might be!

Date:

Astronomy

Jun. 13, 2012 Rise Set
Actual Time 5:16 AM CDT 9:26 PM CDT
Civil Twilight 4:34 AM CDT 10:09 PM CDT
Nautical Twilight 3:34 AM CDT 11:09 PM CDT
Astronomical Twilight 1:53 AM CDT 12:49 AM CDT
Moon 1:54 AM CDT (6/13) 3:53 PM CDT (6/13)
Length of Visible Light 17h 34m
Length of Day
16h 09m
Waning Crescent, 29% of the Moon is Illuminated
Jun 13
Waning Crescent
Jun 19
New
Jun 26
First Quarter
Jul 3
Full
Jul 10
Last Quarter

Hourly Weather History & Observations

Time (CDT) Temp. Dew Point Humidity Pressure Visibility Wind Dir Wind Speed Gust Speed Precip Events Conditions
12:13 AM 57.2 °F 48.2 °F 72% 29.96 in 10.0 mi South 9.2 mph - N/A   Mostly Cloudy
12:34 AM 59.0 °F 48.2 °F 67% 29.95 in 10.0 mi South 6.9 mph - N/A   Scattered Clouds
12:54 AM 60.8 °F 48.2 °F 63% 29.94 in 10.0 mi South 6.9 mph - N/A   Mostly Cloudy
1:14 AM 59.0 °F 48.2 °F 67% 29.93 in 10.0 mi South 9.2 mph - N/A   Mostly Cloudy
1:34 AM 57.2 °F 48.2 °F 72% 29.93 in 10.0 mi SSW 8.1 mph - N/A   Clear
1:54 AM 57.2 °F 48.2 °F 72% 29.93 in 10.0 mi South 8.1 mph - N/A   Clear
2:14 AM 59.0 °F 48.2 °F 67% 29.93 in 10.0 mi SSW 10.4 mph - N/A   Scattered Clouds
2:34 AM 59.0 °F 48.2 °F 67% 29.95 in 10.0 mi West 6.9 mph - N/A   Scattered Clouds
2:54 AM 57.2 °F 48.2 °F 72% 29.95 in 10.0 mi West 6.9 mph - N/A   Mostly Cloudy
3:14 AM 59.0 °F 48.2 °F 67% 29.95 in 10.0 mi West 4.6 mph - N/A   Overcast
3:34 AM 59.0 °F 48.2 °F 67% 29.94 in 10.0 mi SW 8.1 mph - N/A   Mostly Cloudy
3:54 AM 57.2 °F 48.2 °F 72% 29.92 in 10.0 mi South 5.8 mph - N/A   Mostly Cloudy
4:14 AM 57.2 °F 48.2 °F 72% 29.93 in 10.0 mi SW 4.6 mph - N/A   Overcast
4:34 AM 57.2 °F 48.2 °F 72% 29.93 in 10.0 mi SSW 6.9 mph - N/A   Overcast
4:54 AM 57.2 °F 48.2 °F 72% 29.93 in 10.0 mi SSW 8.1 mph - N/A Rain Rain
5:14 AM 57.2 °F 48.2 °F 72% 29.92 in 10.0 mi SSW 6.9 mph - N/A   Mostly Cloudy
5:34 AM 57.2 °F 48.2 °F 72% 29.92 in 10.0 mi SSW 6.9 mph - N/A   Overcast
6:14 AM 57.2 °F 48.2 °F 72% 29.92 in 10.0 mi SSW 8.1 mph - N/A   Clear
6:34 AM 57.2 °F 48.2 °F 72% 29.92 in 10.0 mi SSW 3.5 mph - N/A   Clear
6:54 AM 57.2 °F 48.2 °F 72% 29.92 in 10.0 mi South 3.5 mph - N/A   Clear
7:13 AM 57.2 °F 48.2 °F 72% 29.92 in 10.0 mi SSW 4.6 mph - N/A   Clear
7:34 AM 57.2 °F 48.2 °F 72% 29.92 in 10.0 mi South 4.6 mph - N/A   Clear
7:53 AM 57.2 °F 48.2 °F 72% 29.92 in 10.0 mi South 5.8 mph - N/A   Scattered Clouds
8:14 AM 60.8 °F 51.8 °F 72% 29.93 in 10.0 mi SW 8.1 mph - N/A   Scattered Clouds
8:34 AM 62.6 °F 51.8 °F 68% 29.92 in 10.0 mi SSW 8.1 mph - N/A   Scattered Clouds
8:54 AM 64.4 °F 51.8 °F 64% 29.92 in 10.0 mi SSW 8.1 mph - N/A   Clear
9:14 AM 64.4 °F 51.8 °F 64% 29.92 in 10.0 mi SSW 8.1 mph - N/A   Clear
9:34 AM 66.2 °F 51.8 °F 60% 29.91 in 10.0 mi SW 11.5 mph - N/A   Clear
9:53 AM 66.2 °F 53.6 °F 64% 29.91 in 10.0 mi SSW 12.7 mph 17.3 mph N/A   Clear
10:14 AM 68.0 °F 53.6 °F 60% 29.91 in 10.0 mi SW 10.4 mph 18.4 mph N/A   Clear
10:54 AM 71.6 °F 55.4 °F 57% 29.89 in 10.0 mi SSW 11.5 mph 17.3 mph N/A   Clear
11:13 AM 71.6 °F 57.2 °F 60% 29.88 in 10.0 mi South 11.5 mph 20.7 mph N/A   Clear
11:54 AM 73.4 °F 57.2 °F 57% 29.88 in 10.0 mi South 11.5 mph 18.4 mph N/A   Clear
12:13 PM 73.4 °F 57.2 °F 57% 29.88 in 10.0 mi SSW 16.1 mph 20.7 mph N/A   Clear
12:34 PM 73.4 °F 57.2 °F 57% 29.87 in 10.0 mi SSW 11.5 mph 19.6 mph N/A   Clear
12:54 PM 75.2 °F 57.2 °F 53% 29.86 in 10.0 mi South 10.4 mph 17.3 mph N/A   Clear
1:13 PM 75.2 °F 57.2 °F 53% 29.86 in 10.0 mi South 13.8 mph 19.6 mph N/A   Clear
1:34 PM 75.2 °F 59.0 °F 57% 29.85 in 10.0 mi SSW 11.5 mph 20.7 mph N/A   Clear
1:54 PM 77.0 °F 60.8 °F 57% 29.84 in 10.0 mi South 9.2 mph 20.7 mph N/A   Clear
2:14 PM 77.0 °F 57.2 °F 50% 29.84 in 10.0 mi SSW 17.3 mph 23.0 mph N/A   Clear
2:33 PM 77.0 °F 57.2 °F 50% 29.84 in 10.0 mi South 13.8 mph 25.3 mph N/A   Scattered Clouds
2:54 PM 78.8 °F 59.0 °F 51% 29.83 in 10.0 mi SSW 11.5 mph 20.7 mph N/A   Clear
3:14 PM 78.8 °F 59.0 °F 51% 29.83 in 10.0 mi SSW 15.0 mph 25.3 mph N/A   Clear
3:33 PM 78.8 °F 57.2 °F 47% 29.83 in 10.0 mi South 11.5 mph 23.0 mph N/A   Clear
3:54 PM 78.8 °F 59.0 °F 51% 29.82 in 10.0 mi South 10.4 mph - N/A   Scattered Clouds
4:14 PM 78.8 °F 59.0 °F 51% 29.82 in 10.0 mi South 9.2 mph 18.4 mph N/A   Scattered Clouds
4:33 PM 77.0 °F 59.0 °F 54% 29.82 in 10.0 mi South 12.7 mph 18.4 mph N/A   Scattered Clouds
4:54 PM 77.0 °F 59.0 °F 54% 29.82 in 10.0 mi SSE 11.5 mph 17.3 mph N/A   Scattered Clouds
5:14 PM 77.0 °F 60.8 °F 57% 29.81 in 10.0 mi SSE 13.8 mph 23.0 mph N/A   Scattered Clouds
5:33 PM 77.0 °F 57.2 °F 50% 29.81 in 10.0 mi South 9.2 mph 18.4 mph N/A   Clear
5:54 PM 75.2 °F 59.0 °F 57% 29.81 in 10.0 mi South 16.1 mph 23.0 mph N/A   Scattered Clouds
6:13 PM 73.4 °F 59.0 °F 61% 29.82 in 10.0 mi South 6.9 mph 18.4 mph N/A   Scattered Clouds
6:34 PM 73.4 °F 59.0 °F 61% 29.82 in 10.0 mi South 15.0 mph 21.9 mph N/A   Scattered Clouds
6:54 PM 71.6 °F 59.0 °F 64% 29.82 in 10.0 mi South 11.5 mph 20.7 mph N/A   Clear
7:13 PM 71.6 °F 57.2 °F 60% 29.82 in 10.0 mi South 12.7 mph 18.4 mph N/A   Clear
7:34 PM 71.6 °F 55.4 °F 57% 29.82 in 10.0 mi South 15.0 mph 24.2 mph N/A   Clear
7:54 PM 69.8 °F 55.4 °F 60% 29.83 in 10.0 mi South 10.4 mph 23.0 mph N/A   Clear
8:11 PM 68.0 °F 55.4 °F 64% 29.82 in 10.0 mi South 11.5 mph 18.4 mph N/A   Scattered Clouds
8:33 PM 66.2 °F 55.4 °F 68% 29.82 in 10.0 mi South 12.7 mph 20.7 mph N/A   Scattered Clouds
8:54 PM 66.2 °F 55.4 °F 68% 29.83 in 5.0 mi South 9.2 mph 17.3 mph N/A   Haze
9:13 PM 66.2 °F 55.4 °F 68% 29.83 in 10.0 mi SSE 16.1 mph 20.7 mph N/A   Overcast
9:34 PM 64.4 °F 55.4 °F 73% 29.83 in 10.0 mi SSE 10.4 mph - N/A   Overcast
9:54 PM 64.4 °F 55.4 °F 73% 29.83 in 10.0 mi SSE 12.7 mph - N/A   Mostly Cloudy
10:14 PM 62.6 °F 55.4 °F 77% 29.84 in 10.0 mi SSE 12.7 mph - N/A   Scattered Clouds
10:34 PM 62.6 °F 53.6 °F 72% 29.85 in 10.0 mi SSE 10.4 mph - N/A   Clear
10:53 PM 62.6 °F 53.6 °F 72% 29.84 in 10.0 mi SSE 10.4 mph 18.4 mph N/A   Clear
11:34 PM 60.8 °F 53.6 °F 77% 29.83 in 10.0 mi SSE 10.4 mph - N/A   Scattered Clouds
11:54 PM 60.8 °F 53.6 °F 77% 29.82 in 10.0 mi SE 10.4 mph - N/A   Scattered Clouds